Total_Precipitation_Accumulation
0.00 0.00 0.00 0.00 0.00 0.00 0.00 0.00 0.00 0.03 0.09 0.13 0.18 0.22 0.24 0.16 0.47 1.04 0.97 1.23 1.83 1.44 1.03 1.58 1.29 0.62 0.25 0.22 0.19 0.04 0.03 0.02 0.02 0.00 0.00 0.00 0.01 0.00 0.01 0.02 0.08 0.08 0.04 0.03 0.01 0.00 0.01 0.03 0.02
0.00 0.00 0.00 0.00 0.00 0.00 0.00 0.01 0.01 0.03 0.17 0.23 0.32 0.35 0.43 0.37 0.17 0.64 0.86 0.71 0.66 1.44 1.56 1.44 2.29 1.43 0.96 0.70 0.77 0.82 0.37 0.25 0.04 0.00 0.01 0.02 0.01 0.00 0.02 0.02 0.04 0.02 0.02 0.02 0.02 0.01 0.01 0.01 0.01
0.00 0.00 0.00 0.00 0.00 0.00 0.00 0.01 0.05 0.08 0.16 0.14 0.11 0.20 0.44 0.64 0.60 0.70 0.78 0.90 0.80 1.05 0.97 1.28 2.08 1.57 1.03 1.12 1.12 1.65 1.98 1.86 1.00 0.41 0.35 0.30 0.15 0.04 0.03 0.01 0.01 0.02 0.02 0.02 0.02 0.01 0.01 0.00 0.00
0.00 0.00 0.00 0.00 0.00 0.00 0.00 0.02 0.07 0.10 0.11 0.09 0.10 0.21 0.49 0.58 0.48 0.44 0.76 1.28 1.83 2.03 1.47 1.74 2.10 1.30 0.70 1.09 1.43 1.50 2.15 3.34 4.15 3.99 2.27 1.18 0.76 0.25 0.07 0.04 0.04 0.03 0.02 0.03 0.02 0.01 0.00 0.00 0.00
0.00 0.00 0.00 0.00 0.00 0.00 0.00 0.02 0.08 0.11 0.11 0.42 0.18 0.11 0.66 0.80 0.31 0.42 1.15 2.28 3.41 4.56 4.04 3.63 3.90 5.05 2.78 2.50 1.70 1.31 1.43 2.49 4.71 5.00 3.49 2.39 1.72 1.11 0.46 0.19 0.03 0.01 0.01 0.02 0.01 0.00 0.00 0.00 0.00
0.00 0.00 0.00 0.00 0.00 0.01 0.03 0.13 0.22 0.37 0.35 0.46 0.35 0.42 0.86 0.47 0.38 0.75 1.60 3.62 5.15 6.63 8.73 9.01 7.66 8.03 7.58 4.80 2.98 1.94 1.36 1.21 1.53 2.17 1.68 1.84 2.12 1.37 1.06 0.62 0.17 0.03 0.01 0.01 0.00 0.00 0.00 0.00 0.00
0.00 0.00 0.00 0.00 0.01 0.00 0.02 0.15 0.35 0.53 0.42 0.20 0.38 0.40 0.95 0.96 0.77 0.88 1.55 2.78 5.21 5.54 7.02 10.68 9.49 7.13 5.89 6.72 5.90 3.50 2.55 1.65 1.40 1.35 1.52 1.01 1.57 1.18 0.88 0.80 0.25 0.04 0.00 0.00 0.00 0.00 0.00 0.00 0.00
0.00 0.00 0.00 0.00 0.01 0.02 0.06 0.15 0.21 0.15 0.09 0.07 0.15 0.46 1.10 0.76 0.53 0.47 0.58 0.86 2.15 2.59 3.35 3.93 4.06 3.28 2.87 3.59 4.47 4.28 2.90 2.37 2.08 1.32 1.40 1.41 1.21 1.08 0.79 0.58 0.30 0.05 0.00 0.00 0.00 0.00 0.00 0.00 0.00
0.00 0.00 0.00 0.00 0.03 0.11 0.16 0.28 0.33 0.20 0.06 0.11 0.26 0.18 0.28 0.46 0.34 0.34 0.61 0.72 1.36 2.28 1.62 1.65 1.26 0.85 0.82 1.26 1.99 2.70 2.40 2.40 2.48 2.01 1.19 1.78 1.82 0.84 0.78 0.64 0.42 0.12 0.00 0.00 0.00 0.00 0.00 0.00 0.00
0.00 0.00 0.00 0.00 0.06 0.33 0.29 0.15 0.03 0.01 0.01 0.20 0.53 0.53 0.32 0.33 0.25 0.20 0.26 0.62 1.09 0.94 0.77 0.49 0.39 0.30 0.25 0.23 0.36 0.70 1.46 2.18 2.19 2.79 1.41 1.32 2.21 1.08 0.91 0.94 0.31 0.11 0.00 0.00 0.00 0.00 0.00 0.00 0.00
0.00 0.00 0.00 0.00 0.00 0.00 0.01 0.01 0.00 0.00 0.19 0.52 0.67 0.50 0.42 0.34 0.24 0.27 0.45 0.40 0.52 0.32 0.21 0.27 0.47 0.47 0.20 0.19 0.16 0.23 0.65 1.44 1.50 2.48 2.09 0.79 1.08 1.28 1.15 0.73 0.18 0.02 0.00 0.00 0.00 0.00 0.00 0.00 0.00
0.00 0.00 0.00 0.00 0.00 0.00 0.00 0.00 0.01 0.04 0.27 0.22 0.26 0.69 0.62 0.49 0.39 0.33 0.29 0.22 0.11 0.15 0.16 0.12 0.12 0.20 0.24 0.24 0.19 0.20 0.49 0.85 0.92 1.22 2.23 0.98 0.74 0.86 1.07 0.32 0.04 0.00 0.00 0.00 0.00 0.00 0.00 0.00 0.00
0.00 0.00 0.00 0.00 0.00 0.00 0.00 0.01 0.02 0.08 0.45 0.51 0.27 0.32 0.45 0.50 0.44 0.51 0.31 0.11 0.09 0.08 0.15 0.19 0.20 0.27 0.30 0.33 0.18 0.19 0.71 0.83 0.79 0.80 1.11 1.03 0.82 0.57 0.59 0.26 0.03 0.00 0.00 0.00 0.00 0.00 0.00 0.00 0.00
0.00 0.00 0.00 0.00 0.00 0.00 0.00 0.03 0.09 0.18 0.77 0.30 0.15 0.08 0.17 0.26 0.28 0.24 0.13 0.10 0.09 0.10 0.19 0.28 0.28 0.43 0.20 0.22 0.25 0.34 0.65 0.78 0.62 0.60 0.70 0.56 0.60 0.48 0.38 0.24 0.02 0.00 0.00 0.00 0.00 0.00 0.00 0.00 0.00
0.00 0.00 0.00 0.00 0.00 0.00 0.01 0.03 0.13 0.21 0.39 0.13 0.05 0.05 0.06 0.11 0.16 0.10 0.11 0.23 0.16 0.22 0.25 0.42 0.65 0.54 0.22 0.11 0.17 0.31 0.64 0.56 0.51 0.48 0.46 0.38 0.36 0.43 0.28 0.13 0.04 0.02 0.00 0.00 0.00 0.00 0.00 0.00 0.00
0.00 0.00 0.00 0.00 0.00 0.00 0.02 0.17 0.29 0.13 0.09 0.07 0.04 0.01 0.02 0.03 0.01 0.00 0.02 0.01 0.03 0.07 0.19 0.43 0.60 0.57 0.48 0.20 0.26 0.31 0.45 0.62 0.42 0.31 0.33 0.47 0.34 0.33 0.21 0.12 0.06 0.05 0.01 0.00 0.00 0.00 0.00 0.00 0.00
0.00 0.00 0.00 0.00 0.00 0.00 0.01 0.03 0.15 0.07 0.09 0.12 0.10 0.04 0.00 0.02 0.01 0.00 0.00 0.01 0.02 0.02 0.19 0.61 0.80 0.77 0.74 0.61 0.53 0.72 0.75 0.66 0.36 0.20 0.22 0.38 0.31 0.37 0.23 0.12 0.05 0.05 0.02 0.00 0.00 0.00 0.00 0.00 0.00
0.00 0.00 0.00 0.00 0.00 0.00 0.00 0.00 0.09 0.05 0.03 0.09 0.15 0.10 0.02 0.01 0.00 0.00 0.00 0.02 0.03 0.03 0.26 0.64 0.84 1.09 1.18 1.08 0.88 0.61 0.55 0.47 0.32 0.22 0.22 0.29 0.30 0.21 0.21 0.15 0.04 0.02 0.01 0.00 0.00 0.00 0.00 0.00 0.00
0.00 0.00 0.00 0.00 0.00 0.00 0.00 0.00 0.00 0.01 0.11 0.10 0.14 0.07 0.01 0.00 0.00 0.00 0.01 0.02 0.04 0.10 0.40 0.69 0.82 1.10 1.07 0.58 0.41 0.43 0.43 0.27 0.27 0.32 0.31 0.34 0.35 0.18 0.13 0.12 0.07 0.02 0.01 0.00 0.01 0.01 0.00 0.00 0.00
0.00 0.00 0.00 0.00 0.00 0.00 0.00 0.00 0.00 0.00 0.00 0.02 0.03 0.03 0.02 0.00 0.00 0.01 0.03 0.06 0.12 0.24 0.52 0.61 0.48 0.33 0.16 0.11 0.18 0.23 0.27 0.25 0.21 0.28 0.32 0.29 0.31 0.17 0.13 0.12 0.06 0.03 0.01 0.00 0.00 0.00 0.00 0.00 0.00
0.00 0.00 0.00 0.00 0.00 0.00 0.00 0.00 0.00 0.00 0.01 0.01 0.01 0.01 0.01 0.01 0.00 0.02 0.06 0.13 0.17 0.15 0.15 0.09 0.06 0.05 0.09 0.11 0.25 0.32 0.37 0.28 0.23 0.22 0.30 0.31 0.24 0.16 0.08 0.13 0.05 0.02 0.03 0.01 0.00 0.00 0.00 0.00 0.00
0.00 0.00 0.00 0.00 0.00 0.00 0.00 0.01 0.00 0.00 0.00 0.00 0.00 0.00 0.01 0.03 0.02 0.03 0.02 0.01 0.00 0.01 0.09 0.07 0.07 0.05 0.06 0.06 0.13 0.17 0.17 0.13 0.12 0.12 0.12 0.15 0.16 0.13 0.05 0.05 0.04 0.03 0.04 0.03 0.03 0.03 0.03 0.02 0.04
0.01 0.00 0.00 0.00 0.00 0.02 0.02 0.02 0.02 0.00 0.00 0.00 0.00 0.00 0.00 0.00 0.00 0.00 0.00 0.00 0.01 0.02 0.07 0.09 0.10 0.10 0.06 0.04 0.11 0.20 0.18 0.16 0.15 0.10 0.06 0.05 0.11 0.10 0.05 0.04 0.04 0.03 0.03 0.05 0.11 0.08 0.11 0.23 0.35
0.00 0.00 0.00 0.00 0.00 0.04 0.01 0.05 0.03 0.02 0.01 0.01 0.01 0.00 0.00 0.01 0.02 0.00 0.01 0.01 0.00 0.03 0.05 0.05 0.13 0.09 0.13 0.09 0.13 0.18 0.23 0.17 0.12 0.08 0.04 0.03 0.03 0.05 0.04 0.05 0.06 0.09 0.11 0.18 0.23 0.24 0.25 0.36 0.39
0.00 0.00 0.02 0.17 0.09 0.03 0.04 0.03 0.02 0.01 0.00 0.00 0.00 0.00 0.01 0.00 0.00 0.00 0.00 0.00 0.00 0.01 0.02 0.06 0.14 0.17 0.18 0.24 0.19 0.19 0.19 0.22 0.07 0.03 0.02 0.05 0.09 0.13 0.12 0.10 0.09 0.13 0.24 0.28 0.26 0.30 0.35 0.39 0.47
0.00 0.00 0.03 0.15 0.12 0.11 0.05 0.03 0.00 0.00 0.00 0.00 0.00 0.00 0.00 0.00 0.00 0.00 0.00 0.00 0.01 0.03 0.02 0.09 0.09 0.18 0.18 0.24 0.22 0.24 0.20 0.09 0.14 0.06 0.10 0.14 0.12 0.08 0.07 0.13 0.18 0.21 0.25 0.37 0.46 0.51 0.54 0.63 0.69
0.01 0.00 0.01 0.03 0.05 0.09 0.03 0.02 0.01 0.01 0.00 0.00 0.00 0.00 0.00 0.00 0.00 0.00 0.00 0.00 0.04 0.02 0.04 0.10 0.13 0.17 0.17 0.18 0.20 0.29 0.29 0.15 0.08 0.12 0.14 0.17 0.14 0.10 0.13 0.22 0.32 0.46 0.53 0.52 0.55 0.66 0.77 0.85 0.81
0.00 0.00 0.00 0.01 0.06 0.05 0.00 0.01 0.03 0.02 0.01 0.00 0.00 0.00 0.00 0.00 0.00 0.00 0.00 0.00 0.01 0.03 0.07 0.08 0.08 0.10 0.10 0.10 0.15 0.20 0.25 0.35 0.24 0.23 0.41 0.46 0.49 0.43 0.45 0.50 0.58 0.53 0.47 0.43 0.52 0.49 0.43 0.40 0.38
0.00 0.00 0.00 0.01 0.00 0.01 0.02 0.02 0.00 0.01 0.00 0.00 0.00 0.00 0.00 0.00 0.00 0.00 0.01 0.01 0.01 0.01 0.05 0.06 0.05 0.08 0.20 0.27 0.19 0.14 0.24 0.28 0.67 1.04 1.08 0.94 0.97 1.09 0.97 0.80 0.72 0.74 0.79 0.79 0.64 0.46 0.42 0.38 0.33
0.00 0.00 0.01 0.01 0.00 0.01 0.01 0.01 0.00 0.00 0.00 0.00 0.01 0.00 0.00 0.00 0.00 0.00 0.00 0.01 0.03 0.01 0.00 0.01 0.05 0.17 0.64 0.93 1.02 0.78 0.97 1.03 1.14 1.52 1.49 1.26 1.13 0.93 0.83 0.94 0.86 0.68 0.53 0.44 0.39 0.34 0.30 0.29 0.32